Charlottesville, VA

6:22 PM EDT on April 23, 2017 (GMT -0400)
Charlottesville-Albemarle

Weather History for KCHO - December, 2010

Change the Weather History Date:

Monday, December 27, 2010

  Actual Average Record
Temperature  
Mean Temperature 33 °F 36 °F  
Max Temperature 38 °F 45 °F 74 °F (1982)
Min Temperature 28 °F 27 °F 5 °F (1983)
Degree Days  
Heating Degree Days 32 29  
Month to date heating degree days 880 725  
Since 1 July heating degree days 1587 1616  
Cooling Degree Days 0 0  
Month to date cooling degree days 0 0  
Year to date cooling degree days 1713 1035  
Moisture  
Dew Point 8 °F    
Average Humidity 42    
Maximum Humidity 58    
Minimum Humidity 26    
Precipitation  
Precipitation 0.00 in 0.07 in 0.83 in (1973)
Month to date precipitation 2.27 2.89  
Year to date precipitation 35.49 42.45  
Sea Level Pressure  
Sea Level Pressure 29.80 in    
Wind  
Wind Speed 12 mph (NW)    
Max Wind Speed 21 mph    
Max Gust Speed 36 mph    
Visibility 10 miles    
Events      
T = Trace of Precipitation, MM = Missing Value Source: NWS Daily Summary

Daily Weather History Graph

Daily Weather History Graph

Search for Another Location

Airport or City:

Trip Planner

Search our weather history database for the weather conditions in past years. The results will help you decide how hot, cold, wet, or windy it might be!

Date:

Astronomy

Dec. 27, 2010 Rise Set
Actual Time 7:29 AM EST 5:00 PM EST
Civil Twilight 6:59 AM EST 5:30 PM EST
Nautical Twilight 6:26 AM EST 6:03 PM EST
Astronomical Twilight 5:54 AM EST 6:35 PM EST
Moon No Moon Rise 11:23 AM EST (12/27)
Length of Visible Light 10h 30m
Length of Day
9h 31m
Waning Gibbous, 55% of the Moon is Illuminated
Dec 27
Waning Gibbous
Dec 27
Last Quarter
Jan 4
New
Jan 12
First Quarter
Jan 19
Full

Hourly Weather History & Observations

Time (EST) Temp. Windchill Dew Point Humidity Pressure Visibility Wind Dir Wind Speed Gust Speed Precip Events Conditions
12:53 AM 28.0 °F 21.7 °F 10.0 °F 47% 29.64 in 10.0 mi Variable 5.8 mph - N/A   Overcast
1:53 AM 28.9 °F 19.8 °F 9.0 °F 43% 29.63 in 10.0 mi NW 10.4 mph 18.4 mph N/A   Overcast
3:53 AM 28.9 °F 22.8 °F 7.0 °F 40% 29.64 in 10.0 mi Variable 5.8 mph - N/A   Overcast
4:53 AM 30.0 °F 21.1 °F 7.0 °F 38% 29.63 in 10.0 mi NNW 10.4 mph 19.6 mph N/A   Overcast
5:53 AM 30.0 °F 25.2 °F 8.1 °F 40% 29.67 in 10.0 mi Variable 4.6 mph - N/A   Overcast
6:53 AM 30.0 °F 21.1 °F 7.0 °F 38% 29.70 in 10.0 mi WNW 10.4 mph 25.3 mph N/A   Clear
7:53 AM 30.0 °F 21.1 °F 6.1 °F 36% 29.72 in 10.0 mi WNW 10.4 mph 29.9 mph N/A   Clear
8:53 AM 30.9 °F 19.4 °F 5.0 °F 33% 29.76 in 10.0 mi WNW 17.3 mph 32.2 mph N/A   Clear
9:53 AM 33.1 °F 25.5 °F 5.0 °F 31% 29.79 in 10.0 mi NNW 9.2 mph 17.3 mph N/A   Clear
10:53 AM 35.1 °F 27.4 °F 3.9 °F 27% 29.80 in 10.0 mi NW 10.4 mph 26.5 mph N/A   Clear
11:53 AM 35.1 °F 27.4 °F 3.9 °F 27% 29.78 in 10.0 mi NNW 10.4 mph 24.2 mph N/A   Clear
12:53 PM 37.0 °F 28.9 °F 7.0 °F 29% 29.78 in 10.0 mi WNW 12.7 mph 20.7 mph N/A   Clear
1:53 PM 37.9 °F 28.5 °F 7.0 °F 28% 29.77 in 10.0 mi WNW 17.3 mph 27.6 mph N/A   Clear
2:53 PM 37.0 °F 28.1 °F 6.1 °F 28% 29.80 in 10.0 mi NW 15.0 mph 27.6 mph N/A   Clear
3:53 PM 35.1 °F 25.9 °F 6.1 °F 30% 29.82 in 10.0 mi NW 13.8 mph 25.3 mph N/A   Clear
4:53 PM 35.1 °F 24.8 °F 8.1 °F 33% 29.85 in 10.0 mi NNW 17.3 mph 29.9 mph N/A   Clear
5:53 PM 34.0 °F 23.8 °F 10.0 °F 37% 29.87 in 10.0 mi NNW 16.1 mph 29.9 mph N/A   Clear
6:03 PM 33.8 °F 22.8 °F 10.4 °F 38% 29.86 in 10.0 mi NNW 18.4 mph 29.9 mph N/A   Clear
6:53 PM 33.1 °F 21.9 °F 10.9 °F 40% 29.91 in 10.0 mi NNW 18.4 mph 29.9 mph N/A   Clear
7:53 PM 34.0 °F 23.0 °F 10.9 °F 38% 29.94 in 10.0 mi NNW 18.4 mph 34.5 mph N/A   Clear
8:53 PM 33.1 °F 23.4 °F 12.0 °F 42% 29.94 in 10.0 mi NNW 13.8 mph 29.9 mph N/A   Clear
9:53 PM 32.0 °F 23.0 °F 12.9 °F 45% 29.98 in 10.0 mi NW 11.5 mph - N/A   Clear
10:53 PM 33.1 °F 28.7 °F 12.0 °F 42% 30.00 in 10.0 mi West 4.6 mph - N/A   Clear
11:53 PM 30.9 °F 26.2 °F 12.0 °F 46% 30.03 in 10.0 mi WNW 4.6 mph - N/A   Clear